シューメーカー-レヴィ第4彗星

118P/Shoemaker-Levy 4 (2022)

English version
Home page
Updated on September 17, 2022

---------------------------------------------------------------------

・ プロフィール

・ 写真集

・ 軌道要素

Epoch 2022 Aug. 9.0 TT = JDT 2459800.5
T 2022 Nov. 24.31388 TT                                 Rudenko
q   1.8290192            (2000.0)            P               Q
n   0.16099255     Peri.  314.82597     -0.12728673     -0.98600745
a   3.3465619      Node   142.09762     +0.95228301     -0.15183851
e   0.4534632      Incl.   10.09184     +0.27740792     +0.06880686
P   6.12
From 485 observations 2012 July 19-2022 Sept. 1, mean residual 0".6.
     Nongravitational parameters A1 = -0.28, A2 = -0.0527.

・ 星図

・ 光度変化

        H = 14.5  G = 0.15                [    ,-425]  (              〜2021年 9月25日)
        m1 =  8.2 + 5 logΔ + 18.0 log r  [-425,-100]  (2021年 9月25日〜2022年 8月16日)
        m1 = -4.5 + 5 logΔ + 60.0 log r  [-100, 100]  (2022年 8月16日〜2023年 3月 4日)
        m1 =  8.2 + 5 logΔ + 18.0 log r  [ 100, 435]  (2023年 3月 4日〜2024年 2月 2日)
        H = 14.5  G = 0.15                [ 435,    ]  (2024年 2月 2日〜              )

---------------------------------------------------------------------

軌道要素はM.P.E.C. 2022-R68に掲載されたものです。
星図はステラナビゲータ Ver.10 (アストロアーツ) で作成したものです。
光度グラフはComet for Windowsで作成したものです。

---------------------------------------------------------------------

Copyright(C) Seiichi Yoshida (comet@aerith.net). All rights reserved.